Location: Unspecified
(43.4354°N, 0.0000°E)
Time: 06:45:57
(UTC+00:00)

Courier 1B - Pass Details

Date: 27 June 2019
Orbit: 962 x 1209 km, 28.3° (Epoch: 12 October)

Event Time Altitude Azimuth Distance (km) Brightness Sun altitude
Rises 19:38:52 0° 251° (WSW) 3,810 11.2 0.1°
Reaches altitude 10° 19:42:18 10° 235° (SW) 2,900 10.3 -0.4°
Maximum altitude 19:47:15 20° 191° (S) 2,293 9.3 -1.2°
Drops below altitude 10° 19:52:24 10° 147° (SSE) 3,026 9.5 -1.9°
Enters shadow 19:55:14 - 134° (SE) 3,781 9.9 -2.4°
Sets 19:56:04 0° 132° (SE) 4,026 - -2.5°
